Regional Weather Roundup
Issued by NWS Wakefield, VA

Home | Current Version | Previous Version | Graphics & Text | Print | Product List | Glossary On
Versions: 1 2 3 4 5 6 7 8 9 10 11 12 13 14 15 16 17 18 19 20 21 22 23 24 25 26 27 28 29 30 31 32 33 34 35 36 37 38 39 40 41 42 43 44 45 46 47 48 49 50
000
ASUS41 KAKQ 260315
RWRAKQ

REGIONAL WEATHER ROUNDUP
NATIONAL WEATHER SERVICE WAKEFIELD VA
1100 PM EDT WED MAY 25 2016

Note: "fair" indicates few or no clouds below 12,000 feet with no
significant weather and/or obstructions to visibility. * = Denotes
station may not report precipitation (e.g., rain,snow,etc.),
thunder or fog.

VAZ042-051-052>054-056-260400-
NORTHERN VIRGINIA

CITY           SKY/WX    TMP DP  RH WIND       PRES   REMARKS
WASH NATIONAL  FAIR      68  62  81 S7        30.12S
DULLES         MOCLDY    67  55  65 S5        30.12S
FORT BELVOIR   FAIR      63  59  88 CALM      30.12S
QUANTICO       FAIR      67  61  81 W3        30.13R
FREDERICKSBRG* NOT AVBL
STAFFORD*      FAIR      60  58  94 CALM      30.16S
WARRENTON      FAIR      62  56  80 CALM      30.12S
CULPEPER*      FAIR      62  60  93 CALM      30.13S
MANASSAS*      FAIR      63  63 100 CALM      30.12S
LEESBURG*      FAIR      68  63  83 SW5       30.13S
WINCHESTER     FAIR      64  55  72 CALM      30.13R
FRONT ROYAL*   FAIR      63  55  77 CALM      30.12S
LURAY*         FAIR      63  59  88 CALM      30.14S
$$

VAZ048-049-060>072-079>083-260400-
CENTRAL AND SOUTH CENTRAL VIRGINIA

CITY           SKY/WX    TMP DP  RH WIND       PRES   REMARKS
RICHMOND       FAIR      67  59  75 CALM      30.13S
CHESTERFIELD*  FAIR      64  50  59 CALM      30.15S
PETERSBURG*    FAIR      62  62 100 CALM      30.15S
HANOVER        FAIR      63  57  81 CALM      30.15R
TAPPAHANNOCK*  FAIR      64  64  99 CALM      30.14S
QUINTON*       FAIR      65  62  90 CALM      30.13S
CHARLOTTSVILLE FAIR      72  56  57 CALM      30.13S
GORDONSVILLE*  FAIR      62  61  94 CALM      30.13S
ORANGE*        FAIR      64  61  88 CALM      30.15S
LOUISA*          N/A    N/A N/A N/A CALM      30.13S
BUMPASS*       FAIR      64  60  84 CALM      30.13S
FARMVILLE*     FAIR      64  60  85 CALM      30.13S
CREWE*         FAIR      61  61 100 CALM      30.14F
FORT PICKETT*  NOT AVBL
CHASE CITY*    FAIR      65  63  94 CALM      30.16R
CLARKSVILLE*   FAIR      64  63  94 CALM      30.15S
SOUTH HILL*    FAIR      62  61  96 CALM      30.21S
LAWRENCEVILLE* FAIR      66  63  89 CALM      30.15S
EMPORIA*       FAIR      61  61 100 CALM      30.16S
$$

VAZ088>098-260400-
SOUTHEAST VIRGINIA

CITY           SKY/WX    TMP DP  RH WIND       PRES   REMARKS
NORFOLK        FAIR      71  60  68 S3        30.14S
VIRGINIA BEACH FAIR      75  60  59 S5        30.14S
NORFOLK NAVAL  FAIR      69  60  73 S6        30.15S
WEST POINT*    FAIR      67  60  76 CALM      30.15S
SALUDA*        FAIR      69  62  80 S3        30.13S
NEWPORT NEWS   FAIR      66  63  90 NE3       30.14S
LANGLEY AFB    FAIR      67  63  86 S3        30.14S
FORT EUSTIS    FAIR      68  58  71 SE3       30.12S
WILLIAMSBURG*  FAIR      66  64  94 CALM      30.15S
HR EXEC AP*      N/A     61  57  88 CALM      30.17S
FRANKLIN*      FAIR      65  61  86 CALM      30.15S
US460-WAKEFLD  FAIR      65  60  84 CALM      30.14S
$$

VAZ020-022-025-037-045-260400-
WEST CENTRAL AND SOUTHWEST VIRGINIA

CITY           SKY/WX    TMP DP  RH WIND       PRES   REMARKS
STAUNTON*      FAIR      62  57  85 CALM      30.18R
WAYNESBORO*    FAIR      66  55  66 CALM      30.17R
HOT SPRINGS VA FAIR      66  52  60 SW8       30.27S
LYNCHBURG      FAIR      71  55  56 SW3       30.17S
DANVILLE       FAIR      63  59  87 SW3       30.17R
SOUTH BOSTON*  FAIR      63  62  95 CALM      30.16R
MARTINSVILLE   FAIR      60  58  93 CALM      30.21S
ROANOKE        FAIR      68  59  73 W3        30.19R
BLACKSBURG     FAIR      69  58  68 CALM      30.25S
DUBLIN*        FAIR      66  60  80 W3        30.24S
MARION*        FAIR      65  58  78 CALM      30.28S
HILLSVILLE*    FAIR      67  58  70 S5        30.25S
RICHLANDS*     FAIR      69  54  58 S5        30.25S
WISE*          CLOUDY    68  50  52 CALM      30.25S
ABINGDON*      RAIN      70  60  72 CALM      30.24R
$$

MDZ021>025-VAZ099-100-260400-
SOUTHERN MARYLAND AND THE DELMARVA PENINSULA

CITY           SKY/WX    TMP DP  RH WIND       PRES   REMARKS
PATUXENT RIVER MOCLDY    63  57  81 CALM      30.12S
BAY BRIDGE APT PTCLDY    73  54  49 S6        30.11F
LEONARDTOWN    PTCLDY    64  55  72 CALM      30.14S
DOVER          CLEAR     70  60  69 S3        30.11S
GEORGETOWN     CLEAR     66  58  75 CALM      30.13S
EASTON         PTCLDY    72  60  66 CALM      30.16S
CAMBRIDGE      PTCLDY    64  55  72 CALM      30.12F
SALISBURY      PTCLDY    68  57  68 S5        30.13S
OCEAN CITY     PTCLDY    69  55  60 SW6       30.14S
WALLOPS ISLAND FAIR      67  61  81 S5        30.14F
ACCOMACK*      FAIR      68  59  73 S7        30.14S
$$

NCZ012>017-030>032-260400-
NORTH CENTRAL AND EASTERN NORTH CAROLINA

CITY           SKY/WX    TMP DP  RH WIND       PRES   REMARKS
ROANOKE RAPIDS FAIR      64  61  88 CALM      30.15S
RALEIGH        PTCLDY    69  58  67 CALM      30.17R
ELIZABETH CITY CLEAR     73  60  63 S10       30.17R
AHOSKIE*       NOT AVBL
EDENTON*       CLEAR     74  65  75 S9        30.18R
CURRITUCK*     CLEAR     73  60  64 S3        30.17S
KILL DEVIL HLS CLEAR     71  62  74 S5        30.17S
MANTEO         CLEAR     71  66  85 S7        30.19S
CAPE HATTERAS  CLEAR     71  66  84 SW9       30.21R
TARBORO*       FAIR      72  62  70 S3        30.17S
GOLDSBORO      CLEAR     74  63  70 S8        30.17R
WASHINGTON     CLEAR     72  58  62 S5        30.19R
GREENVILLE     CLEAR     72  61  68 S8        30.19R
NEW BERN       PTCLDY    70  63  78 S8        30.21R
WILMINGTON     CLEAR     71  66  84 S6        30.21R
$$

VAZ048-260400-
ELSEWHERE

CITY           SKY/WX    TMP DP  RH WIND       PRES   REMARKS
HARRISBURG PA  CLOUDY    76  54  46 SW15      30.08F
BALTIMORE      MOCLDY    66  55  67 W3        30.11S
ANNAPOLIS      CLEAR     67  59  75 CALM      30.11S
ANDREWS AFB    FAIR      67  57  70 S6        30.12S
PHILADELPHIA   PTCLDY    73  53  49 SW6       30.10S
HENDERSON NC   CLEAR     64  58  80 CALM      30.17R
GREENSBORO     PTCLDY    72  57  59 S5        30.18R
ROCKY MOUNT    CLEAR     72  61  68 S7        30.17R
$$

VAZ100-260400-
MARINE

STATION/POSITION TIME  TEMP    WIND        PRES    WAVE   SWELL
                       AIR SEA DIR/SP/G            HT/PER HT/PER
                 (UTC) (F)     (DEG/KT/KT) (MB)    (FT/S) (FT/S)
BRANDYWINE LGT   0200          240/ 11/ 12 1020.1R
CAPE MAY NJ      0200      66  210/  6/  7 1019.8R
LEWES DE         0200      63  220/  4/  5 1020.0R
15NM E FENWICK I 0250   63 57              1020.3F   2/ 9
OCEAN-CITY-INLET 0200      62  230/  5/  6 1020.9R
WACHAPREAGUE VA  0200      73  210/  3/  4 1020.4R
THOMAS POINT MD  0300   69 65  200/ 13/ 13 1020.9F
GOOSES REEF MD   0300   70 65  170/  8/  8 1020.9F   0
COVE POINT MD    0200          170/  5/  6 1020.6R
SOLOMONS ISLAND  0200      63   30/  1/  2   N/A
BISHOPS HEAD MD  0200      73  170/  7/  8 1020.3R
PINEY POINT MD   0200          140/  6/  6   N/A
POTOMAC MD       0300   69 68  210/  6/  6 1019.2S   0
CAMBRIDGE MD     0200      64  190/  3/  4 1019.3R
LEWISETTA VA     0200      70  200/  2/  4 1019.8S
RAPPAHANNOCK LGT 0200          140/  9/  9 1021.1R
STINGRAY PT      0300   69 66  180/  6/  8 1020.7F   0
YORK RVR RNG VA  0200          160/  5/  7 1020.0R
YORKTOWN VA      0200      65   CALM  /  1 1020.3R
JAMESTOWN VA     0300   69 70   CALM  /  2   N/A     0
DOMINION TERM VA 0200           CALM  /  1 1020.7R
KIPTOPEKE VA     0200      67  140/  3/  4   N/A
CHES BAY BRIDGE  0200      65  140/  6/  6 1020.7R
CAPE HENRY VA    0200          160/  7/  9   N/A
CHESAPEAKE LGHT  0200   74     200/ 20/ 20 1021.0R
WILLOUBY STN VA  0200          180/  4/  4 1021.7R
CAPE HENRY BUOY  0212      63                N/A     2/ 9
1ST LANDING BUOY 0300   70 67  190/  6/  8 1020.6S   1/ 3
CAPE CHARLES BUO 0226      64                N/A     2/ 8   2/ 8
OFFSHORE WE BUOY 0221      61                N/A     2/ 8   2/ 8
64NM E OF VA BCH 0250   65 60  210/ 12/ 14 1021.3R   3/ 8   2/ 8
DUCK PIER NC     0200      63  200/ 11/ 15 1020.9R
44100 DUCK FRF   0224      66                N/A     2/ 9
44056 DUCK FRF   0211      63                N/A     2/ 9
OREGON INLET NC  0200      73  200/ 12/ 14 1021.9R
HATTERAS NC      0200      72  210/  8/ 11 1022.3R
DIAMOND SHLS NC  0250   73 70  220/  8/  8 1022.8R   2/ 8   2/ 8
CAPE LOOKOUT C1F1C2F2C3F3C4F4C5F5C6F6C7F7C8M1C9!


USA.gov is the U.S. government's official web portal to all federal, state and local government web resources and services.